Regional Weather Roundup
Issued by NWS Jackson, KY

Home | Current Version | Previous Version | Text Only | Print | Product List | Glossary Off
Versions: 1 2 3 4 5 6 7 8 9 10 11 12 13 14 15 16 17 18 19 20 21 22 23 24 25 26 27 28 29 30 31 32 33 34 35 36 37 38 39 40 41 42 43 44 45 46 47 48 49 50

000
ASUS43 KJKL 272010
RWRJKL

EAST KENTUCKY HOURLY WEATHER ROUNDUP
NATIONAL WEATHER SERVICE JACKSON KY
400 PM EDT FRI MAR 27 2015

NOTE: "FAIR" INDICATES FEW OR NO CLOUDS BELOW 12,000 FEET WITH
NO SIGNIFICANT WEATHER AND/OR OBSTRUCTIONS TO VISIBILITY.

* THESE REPORTS ARE NOT UNDER NWS QUALITY CONTROL AND MAY NOT
  REPORT WEATHER SUCH AS PRECIPITATION AND FOG.

KYZ079-080-083-085-087-088-110-112-115-119-120-272100
...EASTERN KENTUCKY...

CITY           SKY/WX    TMP DP  RH WIND       PRES   REMARKS
JACKSON        CLOUDY    41  24  51 NW9G18    29.89S
LONDON         CLOUDY    43  26  51 NW16G23   29.92R
SOMERSET*      CLOUDY    41  27  56 N10       29.97R
MONTICELLO*    CLOUDY    45  28  51 NW10G20   29.98R
MIDDLESBORO*   PTSUNNY   47  27  45 NW9       29.88S
HAZARD APT*    CLOUDY    45  23  42 NW8       29.88F
BLACK MTN*       N/A     30  30 100 N6          N/A  WCI  24
PIKEVILLE APT* CLOUDY    43  25  49 W8        29.85F
BIG SANDY*     CLOUDY    44  23  44 N7        29.87F
MOREHEAD APT*  CLOUDY    39  23  52 N9G16     29.97R WCI  33
$$

KYZ035-036-041-042-044-050-067-078-099-272100
...CENTRAL KENTUCKY...

CITY           SKY/WX    TMP DP  RH WIND       PRES   REMARKS
MT STERLING*   CLOUDY    37  25  60 N7G17     29.98R WCI  32
FLEMING/MASON* CLOUDY    36  25  64 NW12G18   29.98R WCI  27
DANVILLE*      CLOUDY    36  28  75 N12       29.99R WCI  27
RICHMOND*      CLOUDY    39  25  56 N10G17    29.96R WCI  32
LEXINGTON      CLOUDY    38  23  55 N16       29.98S WCI  29
FRANKFORT      CLOUDY    37  23  56 N15       30.00R WCI  28
$$

KYZ091>093-OHZ055-061-077-WVZ005-015-034-035-042-272100
...SOUTHERN OHIO/WEST VIRGINIA...

CITY           SKY/WX    TMP DP  RH WIND       PRES   REMARKS
COVINGTON      FLURRIES  33  21  61 N21       30.01S WCI  21
COLUMBUS       FLURRIES  30  19  63 NW16      29.97S WCI  19
DAYTON         FLURRIES  30  16  56 NW17G23   30.02F WCI  18
WILMINGTON     CLOUDY    31  18  58 N16G26    29.99R WCI  20
HUNTINGTON     CLOUDY    41  22  46 N14       29.90S
CHARLESTON     PTSUNNY   42  23  46 NW17G24   29.86S
PINEVILLE*     PTSUNNY   47  28  47 MISG      29.85F
BECKLEY        MOSUNNY   41  22  46 NW13      29.77F
BLUEFIELD      PTSUNNY   42  22  44 NW12G22   29.76F
$$

VAZ002-007-008-TNZ017-027-036-066-071-272100
...SOUTHWEST VIRGINIA/EAST TENNESSEE...

CITY           SKY/WX    TMP DP  RH WIND       PRES   REMARKS
WISE*          CLOUDY    41  27  56 W9G23     29.82S
JONESVILLE*    MOCLDY    46  27  46 NW7       29.87F
ABINGDON*      PTSUNNY   46  26  47 N10G20    29.80F
BRISTOL        PTSUNNY   47  27  45 W10       29.83F
KNOXVILLE      PTSUNNY   50  28  42 N9        29.86F
OAK RIDGE      CLOUDY    50  25  37 NW8G20    29.89F
CROSSVILLE     CLOUDY    43  27  53 NW17G24   29.91S
NASHVILLE      CLOUDY    48  30  49 N13       30.00F
$$

...KEY TO REMARKS...
VSB - VISIBILITY IN MILES
WCI - WIND CHILL INDEX
HX  - HEAT INDEX

$$


USA.gov is the U.S. government's official web portal to all federal, state and local government web resources and services.